EW6224 Weather Reports


time (UTC)temp
C
wind
direction
speed
KPH
gust
KPH
rain 1hr
cm
rain 24hr
cm
rain mn
cm
humidity
%
barometer
mb
20260506234605 11 0 0.0 4.8 0.00 1.04 0.58 63 1013.2
20260506233058 11 0 0.0 1.6 0.00 1.04 0.58 59 1013.4
20260506231555 11 240 0.0 6.4 0.00 1.04 0.58 60 1013.5
20260506230052 12 0 1.6 9.7 0.00 1.04 0.58 56 1013.6
20260506224559 12 267 0.0 4.8 0.00 1.24 0.58 59 1013.7
20260506223050 12 205 1.6 6.4 0.00 1.24 0.58 57 1013.7
20260506221549 12 0 3.2 8.0 0.00 1.24 0.58 56 1013.4
20260506220054 12 11 1.6 6.4 0.00 1.24 0.58 57 1013.0
20260506214550 12 30 0.0 8.0 0.00 1.32 0.58 54 1012.9
20260506213053 12 344 3.2 12.9 0.00 1.32 0.58 55 1012.8
20260506211552 12 352 1.6 8.0 0.00 1.32 0.58 59 1012.8
20260506210054 12 335 3.2 12.9 0.00 1.32 0.58 57 1012.7
20260506204551 13 5 0.0 9.7 0.00 1.32 0.58 58 1012.5
20260506203054 12 344 3.2 14.5 0.00 1.32 0.58 55 1012.5
20260506201555 13 43 1.6 12.9 0.00 1.32 0.58 58 1012.3
20260506200051 12 344 3.2 8.0 0.00 1.32 0.58 56 1012.5
20260506194550 12 0 3.2 12.9 0.00 1.32 0.58 59 1012.6
20260506193051 13 344 6.4 14.5 0.00 1.32 0.58 57 1012.5
20260506191551 13 344 8.0 16.1 0.03 1.32 0.58 56 1012.1
20260506184558 14 328 4.8 19.3 0.03 1.32 0.58 57 1012.2
20260506183054 14 352 6.4 14.5 0.03 1.32 0.58 58 1012.4
20260506181559 14 325 4.8 16.1 0.00 1.30 0.56 55 1012.3
20260506180053 14 327 4.8 16.1 0.03 1.30 0.56 58 1012.3
20260506174553 14 352 4.8 14.5 0.03 1.30 0.56 57 1012.5
20260506173122 13 348 8.0 17.7 0.03 1.30 0.56 58 1012.4
20260506171601 13 344 4.8 16.1 0.03 1.27 0.53 55 1012.4
20260506170055 13 0 3.2 14.5 0.03 1.27 0.53 66 1012.5
20260506164557 12 345 3.2 12.9 0.03 1.27 0.53 61 1012.4
20260506163105 12 0 1.6 17.7 0.03 1.27 0.53 68 1012.6
20260506161617 12 294 3.2 12.9 0.03 1.24 0.51 68 1012.2
20260506160056 11 15 3.2 17.7 0.03 1.24 0.51 68 1012.3
20260506154554 11 306 4.8 12.9 0.05 1.24 0.51 73 1012.1
20260506153058 11 352 1.6 12.9 0.05 1.24 0.51 72 1011.9
20260506151552 10 355 4.8 16.1 0.03 1.22 0.48 71 1011.6
20260506150056 10 336 6.4 14.5 0.03 1.22 0.48 74 1011.9
20260506144554 10 346 1.6 17.7 0.03 1.19 0.46 75 1011.6
20260506143055 10 10 6.4 16.1 0.03 1.19 0.46 78 1011.3
20260506141553 9 352 8.0 14.5 0.03 1.19 0.46 76 1011.0
20260506140054 8 17 6.4 14.5 0.05 1.19 0.46 83 1011.0
20260506134556 8 350 3.2 9.7 0.03 1.17 0.43 86 1010.8
20260506133100 8 343 3.2 12.9 0.03 1.17 0.43 87 1010.8
20260506131601 8 0 6.4 14.5 0.05 1.17 0.43 87 1010.9
20260506130112 8 340 3.2 14.5 0.03 1.14 0.41 89 1010.7
20260506124601 7 338 3.2 8.0 0.03 1.14 0.41 88 1010.3
20260506123053 7 0 4.8 8.0 0.05 1.14 0.41 88 1009.9
20260506121556 7 346 1.6 8.0 0.03 1.12 0.38 87 1009.7
20260506120056 7 0 0.0 6.4 0.03 1.12 0.38 90 1009.9
20260506114550 7 0 3.2 9.7 0.05 1.12 0.38 90 1009.7
20260506113054 7 352 4.8 9.7 0.03 1.09 0.36 92 1008.7
20260506111553 7 331 4.8 9.7 0.05 1.09 0.36 93 1008.5
20260506110056 7 9 3.2 8.0 0.05 1.09 0.36 92 1008.8
20260506104553 7 313 3.2 12.9 0.03 1.07 0.33 92 1008.4
20260506103057 7 350 3.2 8.0 0.05 1.07 0.33 93 1008.8
20260506101558 7 342 3.2 8.0 0.03 1.04 0.30 93 1008.0
20260506100109 7 352 3.2 8.0 0.05 1.04 0.30 93 1007.6
20260506094553 7 29 3.2 8.0 0.05 1.04 0.30 93 1007.0
20260506093053 7 352 4.8 9.7 0.05 1.02 0.28 93 1007.8
20260506091551 7 9 6.4 11.3 0.05 1.02 0.28 93 1007.5
20260506090050 7 352 4.8 14.5 0.05 0.99 0.25 92 1007.7
20260506084620 7 352 8.0 17.7 0.05 0.99 0.25 92 1007.9
20260506083051 8 340 9.7 17.7 0.05 0.97 0.23 92 1007.6
20260506081600 8 352 6.4 16.1 0.05 0.97 0.23 94 1007.6
20260506073057 8 348 6.4 14.5 0.05 0.99 0.18 94 1007.3
20260506071552 8 341 4.8 12.9 0.05 0.99 0.18 94 1007.1
20260506061553 10 348 3.2 6.4 0.08 0.94 0.13 94 1007.0
20260506044702 10 343 1.6 4.8 0.05 0.84 0.03 94 1007.5
20260506043050 10 0 0.0 8.0 0.08 0.84 0.03 93 1007.7
20260506041601 10 360 3.2 6.4 0.05 0.81 0.00 93 1007.8
20260506040050 10 350 4.8 8.0 0.08 0.81 0.00 93 1008.0
20260506034623 10 342 3.2 8.0 0.08 0.79 0.79 93 1008.0
20260506033054 10 338 6.4 14.5 0.05 0.76 0.76 93 1008.3
20260506031603 11 351 0.0 12.9 0.08 0.76 0.76 93 1008.6
20260506030057 11 13 3.2 8.0 0.08 0.74 0.74 91 1008.6
20260506024554 13 44 3.2 12.9 0.08 0.71 0.71 90 1008.2
20260506023112 15 158 0.0 6.4 0.08 0.71 0.71 94 1008.1
20260506021553 15 0 0.0 3.2 0.08 0.69 0.69 94 1008.3
20260506020100 15 0 0.0 3.2 0.08 0.66 0.66 94 1008.4
20260506014554 15 240 0.0 4.8 0.08 0.64 0.64 94 1008.3
20260506013058 15 0 1.6 8.0 0.10 0.64 0.64 94 1008.1
20260506011615 15 259 0.0 6.4 0.10 0.61 0.61 94 1007.9
20260506004619 15 0 0.0 12.9 0.10 0.56 0.56 94 1007.9
20260506003113 15 0 0.0 3.2 0.10 0.53 0.53 93 1007.8
20260506001557 15 0 0.0 3.2 0.13 0.51 0.51 93 1007.5
20260506000051 15 273 0.0 6.4 0.13 0.48 0.48 93 1007.6